FW5929 Weather Reports


Display with metric or nautical units.
time (UTC)temp
F
wind
direction
speed
MPH
gust
MPH
rain 1hr
in
rain 24hr
in
rain mn
in
humidity
%
barometer
mb
20260506062328 50 336 5.0 10.0 0.08 2.64 0.21 93 1007.7
20260506061824 50 342 5.0 9.0 0.08 2.60 0.20 93 1007.7
20260506061323 50 348 5.0 11.0 0.08 2.60 0.20 93 1007.6
20260506060819 49 337 8.0 11.0 0.08 2.60 0.20 93 1007.6
20260506060317 49 22 6.0 10.0 0.04 2.56 0.20 93 1007.5
20260506051317 50 19 9.0 14.0 0.00 2.52 0.19 93 1007.0
20260506050832 50 342 7.0 14.0 0.00 2.52 0.19 93 1007.0
20260506050328 50 360 8.0 16.0 0.00 2.52 0.19 93 1006.9
20260506044830 50 11 10.0 15.0 0.00 2.52 0.19 93 1006.8
20260506044328 50 360 7.0 15.0 0.00 2.52 0.19 93 1006.8
20260506043822 50 335 8.0 15.0 0.00 2.52 0.19 93 1006.7
20260506043320 50 360 6.0 12.0 0.00 2.52 0.19 93 1006.8
20260506042816 50 20 7.0 12.0 0.00 2.52 0.19 93 1006.7
20260506042332 50 339 7.0 13.0 0.00 2.52 0.19 93 1006.7
20260506041829 50 355 9.0 14.0 0.00 2.52 0.19 93 1006.7
20260506041327 50 360 10.0 14.0 0.00 2.52 0.19 93 1006.6
20260506040822 50 335 9.0 14.0 0.00 2.52 0.19 93 1006.6
20260506040340 50 346 10.0 14.0 0.00 2.52 0.19 93 1006.7
20260506035814 50 349 8.0 12.0 0.00 2.52 0.19 93 1006.8
20260506035400 50 344 7.0 11.0 0.00 2.52 0.19 93 1006.8
20260506034834 50 339 6.0 13.0 0.00 2.52 0.19 93 1006.8
20260506034332 50 332 9.0 13.0 0.00 2.52 0.19 93 1006.8
20260506033828 50 318 6.0 11.0 0.00 2.52 0.19 93 1006.8
20260506033326 51 312 6.0 11.0 0.00 2.52 0.19 93 1006.8
20260506032822 51 324 4.0 9.0 0.04 2.52 0.19 93 1006.8
20260506032338 51 319 5.0 9.0 0.04 2.52 0.19 93 1006.8
20260506031854 51 305 4.0 9.0 0.08 2.52 0.19 93 1006.7
20260506031330 51 340 6.0 10.0 0.16 2.52 0.19 93 1006.7
20260506030833 51 329 6.0 11.0 0.28 2.52 0.19 94 1006.7
20260506030331 51 342 7.0 11.0 0.39 2.52 0.19 93 1006.8
20260506025826 51 325 5.0 9.0 0.51 2.52 0.19 94 1006.8
20260506025323 51 325 3.0 8.0 0.63 2.52 0.19 94 1006.8
20260506024818 51 321 4.0 9.0 0.79 2.52 0.19 94 1006.8
20260506024316 51 317 4.0 9.0 0.79 2.52 0.19 94 1006.7
20260506023830 51 331 6.0 9.0 0.79 2.52 0.19 93 1006.8
20260506023314 51 329 4.0 8.0 0.83 2.52 0.19 94 1006.8
20260506022827 51 317 4.0 9.0 0.79 2.48 0.18 94 1006.8
20260506022324 51 349 5.0 9.0 0.83 2.48 0.18 94 1006.8
20260506021821 51 342 7.0 12.0 0.79 2.44 0.17 93 1006.7
20260506021320 51 350 9.0 13.0 0.71 2.32 0.15 93 1006.6
20260506020815 51 351 10.0 13.0 0.59 2.20 0.13 93 1006.5
20260506020332 51 19 9.0 13.0 0.51 2.13 0.11 93 1006.6
20260506015827 51 325 9.0 12.0 0.39 2.01 0.09 93 1006.6
20260506015323 52 325 6.0 9.0 0.28 1.85 0.06 93 1006.7
20260506014817 52 317 3.0 9.0 0.16 1.73 0.03 93 1006.7
20260506014334 52 331 7.0 9.0 0.16 1.73 0.03 93 1006.7
20260506013828 52 321 5.0 10.0 0.16 1.73 0.03 93 1006.7
20260506013327 52 346 6.0 11.0 0.12 1.69 0.02 94 1006.6
20260506012821 52 348 7.0 11.0 0.08 1.65 0.02 94 1006.5
20260506012341 52 340 7.0 11.0 0.08 1.65 0.02 94 1006.5
20260506011838 52 331 7.0 11.0 0.08 1.65 0.02 94 1006.5
20260506011314 52 23 6.0 12.0 0.04 1.61 0.01 94 1006.5
20260506010831 52 322 9.0 12.0 0.04 1.61 0.01 93 1006.4
20260506010330 52 336 6.0 11.0 0.04 1.61 0.01 94 1006.5
20260506005846 52 335 9.0 11.0 0.00 1.57 0.00 94 1006.5
20260506005324 52 333 8.0 11.0 0.00 1.57 0.00 94 1006.4
20260506004820 52 327 6.0 9.0 0.00 1.57 0.00 94 1006.5
20260506004318 52 298 5.0 9.0 0.00 1.57 0.00 94 1006.5
20260506003833 52 319 4.0 9.0 0.00 1.57 0.00 94 1006.5
20260506003353 52 317 4.0 8.0 0.00 1.57 0.00 94 1006.5
20260506002847 52 313 4.0 9.0 0.00 1.57 0.00 94 1006.5
20260506002324 52 301 6.0 9.0 0.00 1.57 0.00 94 1006.5
20260506001819 52 343 6.0 9.0 0.00 1.57 0.00 93 1006.5
20260506001316 52 337 6.0 9.0 0.00 1.57 0.00 94 1006.5
20260506000831 53 290 7.0 9.0 0.00 1.57 0.00 94 1006.6
20260506000330 53 303 6.0 10.0 0.00 1.57 0.00 94 1006.6
20260505235824 53 302 4.0 10.0 0.00 1.57 0.00 94 1006.6
20260505235320 53 312 5.0 8.0 0.00 1.57 0.00 94 1006.7
20260505234815 53 284 4.0 8.0 0.00 1.57 0.00 94 1006.7
20260505234328 53 292 5.0 8.0 0.00 1.57 0.00 94 1006.8
20260505233823 53 297 4.0 8.0 0.00 1.57 0.00 94 1006.7
20260505233341 53 288 3.0 6.0 0.00 1.57 0.00 94 1006.8
20260505232833 53 288 3.0 7.0 0.00 1.57 0.00 94 1006.8
20260505232330 53 297 2.0 4.0 0.00 1.57 0.00 94 1006.8
20260505231824 53 293 2.0 3.0 0.00 1.57 0.00 94 1006.8
20260505231343 53 292 1.0 2.0 0.00 1.57 0.00 94 1006.9
20260505230818 53 300 1.0 2.0 0.00 1.57 0.00 94 1006.8
20260505230316 53 319 1.0 3.0 0.00 1.57 0.00 94 1006.9
20260505225831 53 335 1.0 3.0 0.00 1.57 0.00 94 1006.9
20260505225327 53 267 1.0 3.0 0.00 1.57 0.00 94 1006.9
20260505224822 53 267 1.0 2.0 0.00 1.57 0.00 94 1006.9
20260505224340 54 267 0.0 2.0 0.00 1.57 0.00 94 1006.9
20260505223835 53 267 1.0 3.0 0.00 1.57 0.00 94 1007.0
20260505223333 53 267 1.0 3.0 0.00 1.57 0.00 94 1007.0
20260505222828 54 267 1.0 3.0 0.00 1.57 0.00 94 1007.0
20260505222326 54 267 1.0 2.0 0.00 1.57 0.00 94 1006.9
20260505221820 54 267 1.0 2.0 0.00 1.57 0.00 94 1007.0
20260505221320 54 267 1.0 3.0 0.00 1.57 0.00 94 1007.0
20260505220816 54 267 1.0 3.0 0.00 1.57 0.00 94 1006.9
20260505220400 54 267 2.0 3.0 0.00 1.57 0.00 94 1007.0
20260505215827 54 267 0.0 3.0 0.00 1.57 0.31 94 1007.0
20260505215327 54 267 1.0 5.0 0.00 1.57 0.31 94 1007.0
20260505214823 54 280 4.0 9.0 0.00 1.57 0.31 94 1007.1
20260505214342 54 282 5.0 9.0 0.00 1.57 0.31 94 1007.1
20260505213815 54 244 5.0 8.0 0.00 1.57 0.31 94 1007.1
20260505213314 54 192 2.0 3.0 0.00 1.57 0.31 94 1007.0
20260505212830 54 192 0.0 4.0 0.00 1.57 0.31 94 1007.1
20260505212327 54 197 2.0 4.0 0.00 1.57 0.31 94 1007.1
20260505211824 54 197 1.0 3.0 0.00 1.57 0.31 94 1007.1
20260505211322 54 197 2.0 3.0 0.00 1.57 0.31 94 1007.2
20260505210818 54 197 3.0 3.0 0.00 1.57 0.31 94 1007.1
20260505210317 54 196 1.0 2.0 0.00 1.57 0.31 94 1007.2
20260505205834 54 197 1.0 2.0 0.00 1.57 0.31 94 1007.3
20260505205331 54 197 0.0 2.0 0.00 1.57 0.31 94 1007.2
20260505204847 54 196 1.0 2.0 0.00 1.57 0.31 94 1007.3
20260505204324 54 196 1.0 2.0 0.00 1.57 0.31 94 1007.2
20260505203820 54 196 1.0 3.0 0.00 1.57 0.31 94 1007.3
20260505203317 54 196 2.0 3.0 0.00 1.57 0.31 94 1007.4
20260505202832 54 196 1.0 2.0 0.00 1.57 0.31 94 1007.4
20260505202331 54 196 1.0 3.0 0.00 1.57 0.31 94 1007.4
20260505201826 54 196 2.0 3.0 0.00 1.57 0.31 94 1007.3
20260505201324 54 196 0.0 2.0 0.00 1.57 0.31 94 1007.3
20260505200819 55 196 0.0 4.0 0.00 1.57 0.31 94 1007.3
20260505200318 55 196 1.0 4.0 0.00 1.57 0.31 94 1007.2
20260505195814 55 171 2.0 4.0 0.00 1.57 0.31 94 1007.3
20260505195333 55 171 0.0 2.0 0.00 1.57 0.31 94 1007.2
20260505194829 55 171 1.0 3.0 0.08 1.57 0.31 94 1007.1
20260505194350 55 171 2.0 4.0 0.08 1.57 0.31 94 1007.2
20260505193824 55 171 2.0 5.0 0.08 1.57 0.31 94 1007.1
20260505193322 55 126 2.0 4.0 0.08 1.57 0.31 94 1007.0
20260505192839 55 119 1.0 2.0 0.08 1.57 0.31 94 1006.9
20260505192315 55 118 1.0 3.0 0.08 1.57 0.31 94 1006.8
20260505191832 55 118 2.0 3.0 0.08 1.57 0.31 94 1006.9
20260505191329 55 199 1.0 2.0 0.08 1.57 0.31 94 1006.9
20260505190823 56 199 2.0 2.0 0.08 1.57 0.31 94 1006.9
20260505190320 56 199 2.0 2.0 0.08 1.57 0.31 93 1006.9
20260505185836 56 199 1.0 2.0 0.08 1.57 0.31 93 1006.9
20260505185332 56 199 0.0 1.0 0.04 1.54 0.31 93 1006.9
20260505184826 56 199 0.0 1.0 0.00 1.50 0.30 93 1007.0
20260505184326 56 199 0.0 1.0 0.00 1.50 0.30 93 1007.0
20260505183821 56 198 0.0 1.0 0.00 1.50 0.30 93 1006.9
20260505183318 56 198 0.0 2.0 0.00 1.50 0.30 93 1006.9
20260505182833 56 198 1.0 2.0 0.00 1.50 0.30 93 1006.9
20260505182331 56 198 1.0 2.0 0.04 1.50 0.30 93 1006.9
20260505181826 56 198 1.0 3.0 0.04 1.50 0.30 93 1006.9
20260505181324 56 198 1.0 3.0 0.04 1.50 0.30 93 1006.9
20260505180818 56 198 2.0 3.0 0.08 1.50 0.30 93 1006.8
20260505180315 56 198 1.0 3.0 0.08 1.50 0.30 93 1006.8
20260505175854 56 198 2.0 4.0 0.08 1.54 0.30 93 1006.9
20260505175332 56 198 2.0 4.0 0.08 1.54 0.30 93 1006.9
20260505174827 56 163 2.0 3.0 0.08 1.54 0.30 93 1006.9
20260505174326 56 163 2.0 3.0 0.08 1.54 0.30 93 1006.8
20260505173823 56 162 2.0 3.0 0.12 1.54 0.30 93 1006.8
20260505173320 56 162 1.0 5.0 0.20 1.54 0.30 93 1006.8
20260505172815 56 136 2.0 5.0 0.24 1.54 0.30 93 1006.8
20260505172358 56 136 3.0 4.0 0.24 1.50 0.29 93 1006.8
20260505171853 56 198 2.0 3.0 0.28 1.50 0.29 93 1006.8
20260505171333 56 198 1.0 2.0 0.31 1.50 0.29 93 1006.8
20260505170828 56 198 1.0 2.0 0.31 1.46 0.28 93 1006.9
20260505170327 56 198 1.0 3.0 0.35 1.46 0.28 93 1006.9
20260505165821 56 197 2.0 4.0 0.43 1.46 0.28 93 1007.0
20260505165338 57 197 1.0 4.0 0.51 1.46 0.28 92 1007.0
20260505164832 56 180 2.0 3.0 0.55 1.46 0.28 92 1007.0
20260505164330 56 50 1.0 2.0 0.71 1.42 0.28 92 1006.9
20260505163825 56 42 0.0 3.0 0.91 1.42 0.28 92 1006.9
20260505163324 56 42 2.0 3.0 0.91 1.34 0.26 92 1006.8
20260505162820 56 19 2.0 3.0 0.91 1.30 0.25 92 1006.8
20260505162320 57 19 0.0 2.0 0.87 1.26 0.24 92 1007.0
20260505161817 57 19 1.0 2.0 0.83 1.22 0.24 91 1007.0
20260505161316 57 19 0.0 2.0 0.79 1.18 0.23 91 1006.9
20260505160833 57 19 0.0 3.0 0.75 1.14 0.22 91 1006.9
20260505160332 57 19 1.0 3.0 0.71 1.10 0.21 90 1007.0
20260505153332 58 32 2.0 4.0 0.04 0.43 0.08 88 1007.1
20260505152829 59 28 3.0 8.0 0.00 0.39 0.07 87 1007.0
20260505152347 59 17 5.0 8.0 0.00 0.39 0.07 87 1007.0
20260505151823 59 42 1.0 4.0 0.00 0.39 0.07 86 1007.0
20260505151342 59 42 2.0 4.0 0.00 0.39 0.07 85 1007.0
20260505150816 59 42 3.0 5.0 0.00 0.39 0.07 83 1007.0
20260505150329 59 355 2.0 5.0 0.00 0.39 0.07 84 1007.0
20260505140326 59 81 3.0 6.0 0.04 0.39 0.07 86 1007.2
20260505124843 57 63 4.0 6.0 0.04 0.35 0.06 89 1007.8
20260505124321 58 62 3.0 5.0 0.04 0.35 0.06 89 1007.8
20260505123835 58 17 2.0 4.0 0.08 0.35 0.06 89 1007.8
20260505123331 58 62 2.0 8.0 0.08 0.35 0.06 90 1007.8
20260505122827 58 16 4.0 8.0 0.12 0.35 0.06 90 1007.8
20260505122326 58 63 4.0 6.0 0.12 0.35 0.06 90 1007.9
20260505121821 58 54 3.0 6.0 0.16 0.35 0.06 90 1007.9
20260505121318 58 50 4.0 6.0 0.16 0.31 0.06 90 1008.0
20260505120834 57 31 4.0 6.0 0.16 0.31 0.06 91 1008.0
20260505120332 57 61 3.0 6.0 0.20 0.31 0.06 91 1008.1
20260505115828 57 67 2.0 7.0 0.24 0.31 0.06 92 1008.2
20260505115326 56 86 3.0 7.0 0.24 0.31 0.06 92 1008.3
20260505114823 56 57 3.0 6.0 0.24 0.31 0.06 92 1008.3
20260505114321 56 67 2.0 5.0 0.24 0.28 0.05 92 1008.4
20260505113817 56 78 3.0 6.0 0.24 0.28 0.05 92 1008.4
20260505113314 56 76 3.0 7.0 0.24 0.28 0.05 92 1008.5
20260505112829 56 78 3.0 5.0 0.20 0.24 0.04 92 1008.6
20260505112327 56 46 3.0 5.0 0.20 0.24 0.04 92 1008.6
20260505111821 55 73 3.0 5.0 0.16 0.20 0.03 92 1008.7
20260505111318 56 36 2.0 5.0 0.12 0.16 0.02 92 1008.7
20260505110832 55 70 3.0 7.0 0.08 0.12 0.02 92 1008.7
20260505110332 55 67 3.0 7.0 0.08 0.12 0.02 92 1008.8
20260505101816 55 67 5.0 8.0 0.00 0.08 0.00 92 1009.0
20260505101314 55 74 3.0 5.0 0.00 0.08 0.00 92 1009.0
20260505100825 54 90 2.0 4.0 0.00 0.08 0.00 92 1009.0
20260505100323 55 97 2.0 5.0 0.00 0.08 0.00 92 1009.1
20260505095818 55 71 3.0 5.0 0.00 0.24 0.00 92 1009.1
20260505095317 55 131 2.0 6.0 0.00 0.24 0.00 92 1009.1
20260505094833 55 118 3.0 7.0 0.00 0.24 0.00 91 1009.1
20260505094330 55 94 3.0 7.0 0.00 0.24 0.00 91 1009.1
20260505093827 55 94 4.0 8.0 0.00 0.24 0.00 91 1009.1
20260505093322 55 66 5.0 8.0 0.00 0.24 0.00 91 1009.1
20260505092817 55 27 5.0 8.0 0.00 0.24 0.00 91 1009.0
20260505092336 55 74 2.0 5.0 0.00 0.24 0.00 91 1009.0
20260505091830 55 65 4.0 5.0 0.00 0.24 0.00 92 1009.0
20260505091328 55 355 2.0 5.0 0.00 0.24 0.00 92 1009.1
20260505090824 55 74 3.0 6.0 0.00 0.24 0.00 92 1009.0
20260505090323 55 48 4.0 6.0 0.00 0.24 0.00 92 1009.0
20260505085837 54 38 2.0 10.0 0.00 0.47 0.00 92 1009.1
20260505085314 54 80 3.0 8.0 0.00 0.47 0.00 92 1009.1
20260505084829 54 81 5.0 9.0 0.00 0.47 0.00 92 1009.1
20260505084327 55 87 5.0 9.0 0.00 0.47 0.00 92 1009.1
20260505083822 55 92 4.0 11.0 0.00 0.47 0.00 91 1009.1
20260505083320 55 66 4.0 11.0 0.00 0.47 0.00 91 1009.1
20260505082834 55 65 5.0 9.0 0.00 0.47 0.00 91 1009.1
20260505082331 55 109 5.0 9.0 0.00 0.47 0.00 92 1009.2
20260505081826 55 109 4.0 12.0 0.00 0.47 0.00 91 1009.2
20260505081324 55 97 6.0 12.0 0.00 0.47 0.00 91 1009.2
20260505080819 55 107 8.0 11.0 0.00 0.47 0.00 91 1009.2
20260505080317 56 48 4.0 11.0 0.00 0.47 0.00 91 1009.2
20260505075831 56 94 6.0 11.0 0.00 0.67 0.00 90 1009.2
20260505075350 56 85 7.0 12.0 0.00 0.67 0.00 90 1009.2
20260505074825 56 73 6.0 12.0 0.00 0.67 0.00 89 1009.2
20260505074322 57 34 6.0 10.0 0.00 0.67 0.00 90 1009.2
20260505073818 57 60 5.0 11.0 0.00 0.67 0.00 90 1009.3
20260505073316 57 43 6.0 12.0 0.00 0.67 0.00 90 1009.4
20260505072832 56 64 7.0 11.0 0.00 0.67 0.00 91 1009.4
20260505072330 56 74 6.0 13.0 0.00 0.67 0.00 92 1009.3
20260505071826 57 67 7.0 11.0 0.00 0.67 0.00 93 1009.4
20260505071323 57 65 2.0 10.0 0.00 0.67 0.00 94 1009.3
20260505070819 56 26 6.0 10.0 0.00 0.67 0.00 94 1009.4
20260505070314 55 333 4.0 6.0 0.00 0.67 0.00 95 1009.3
20260505065829 55 69 3.0 8.0 0.00 0.91 0.00 95 1009.4